| time (UTC) | temp F | wind direction | speed MPH | gust MPH | rain 1hr in | rain 24hr in | rain mn in | humidity % | barometer mb |
| 20260502164024 | 54 | 165 | 2.0 | 5.0 | 0.00 | 0.00 | 0.00 | 39 | 1019.4 |
| 20260502163526 | 55 | 165 | 1.0 | 5.0 | 0.00 | 0.00 | 0.00 | 43 | 1019.4 |
| 20260502163050 | 55 | 165 | 0.0 | 5.0 | 0.00 | 0.00 | 0.00 | 42 | 1019.4 |
| 20260502162524 | 55 | 165 | 1.0 | 5.0 | 0.00 | 0.00 | 0.00 | 40 | 1019.3 |
| 20260502162026 | 55 | 165 | 1.0 | 4.0 | 0.00 | 0.00 | 0.00 | 41 | 1019.2 |
| 20260502161546 | 55 | 165 | 1.0 | 4.0 | 0.00 | 0.00 | 0.00 | 41 | 1019.2 |
| 20260502161024 | 55 | 165 | 1.0 | 4.0 | 0.00 | 0.00 | 0.00 | 41 | 1019.3 |
| 20260502160525 | 54 | 165 | 0.0 | 4.0 | 0.00 | 0.00 | 0.00 | 42 | 1019.3 |
| 20260502152026 | 51 | 0 | 0.0 | 2.0 | 0.00 | 0.00 | 0.00 | 65 | 1019.3 |
| 20260502151554 | 51 | 0 | 0.0 | 0.0 | 0.00 | 0.00 | 0.00 | 67 | 1019.1 |
| 20260502151024 | 50 | 0 | 0.0 | 0.0 | 0.00 | 0.00 | 0.00 | 67 | 1019.3 |
| 20260502150524 | 50 | 0 | 0.0 | 2.0 | 0.00 | 0.00 | 0.00 | 70 | 1019.3 |
| 20260502130526 | 46 | 165 | 1.0 | 3.0 | 0.00 | 0.00 | 0.00 | 69 | 1018.4 |
| 20260502123525 | 46 | 165 | 1.0 | 2.0 | 0.00 | 0.00 | 0.00 | 68 | 1018.3 |
| 20260502123042 | 46 | 165 | 1.0 | 4.0 | 0.00 | 0.00 | 0.00 | 67 | 1018.4 |
| 20260502122526 | 46 | 165 | 1.0 | 4.0 | 0.00 | 0.00 | 0.00 | 62 | 1018.4 |
| 20260502122025 | 46 | 165 | 2.0 | 4.0 | 0.00 | 0.00 | 0.00 | 58 | 1018.5 |
| 20260502121543 | 45 | 165 | 0.0 | 2.0 | 0.00 | 0.00 | 0.00 | 56 | 1018.4 |
| 20260502121025 | 45 | 165 | 0.0 | 2.0 | 0.00 | 0.00 | 0.00 | 56 | 1018.5 |
| 20260502120527 | 45 | 0 | 0.0 | 2.0 | 0.00 | 0.00 | 0.00 | 54 | 1018.4 |
| 20260502115525 | 45 | 165 | 0.0 | 4.0 | 0.00 | 0.00 | 0.00 | 54 | 1018.4 |
| 20260502115026 | 45 | 165 | 1.0 | 4.0 | 0.00 | 0.00 | 0.00 | 54 | 1018.5 |
| 20260502114547 | 45 | 165 | 1.0 | 4.0 | 0.00 | 0.00 | 0.00 | 54 | 1018.5 |
| 20260502114026 | 45 | 165 | 1.0 | 4.0 | 0.00 | 0.00 | 0.00 | 55 | 1018.5 |
| 20260502113526 | 45 | 165 | 1.0 | 2.0 | 0.00 | 0.00 | 0.00 | 53 | 1018.6 |
| 20260502113040 | 45 | 165 | 1.0 | 4.0 | 0.00 | 0.00 | 0.00 | 54 | 1018.6 |
| 20260502112525 | 45 | 165 | 1.0 | 4.0 | 0.00 | 0.00 | 0.00 | 53 | 1018.7 |
| 20260502112027 | 45 | 165 | 2.0 | 4.0 | 0.00 | 0.00 | 0.00 | 53 | 1018.6 |
| 20260502111550 | 45 | 165 | 0.0 | 2.0 | 0.00 | 0.00 | 0.00 | 51 | 1018.8 |
| 20260502111024 | 45 | 165 | 1.0 | 2.0 | 0.00 | 0.00 | 0.00 | 50 | 1018.7 |
| 20260502110525 | 45 | 165 | 1.0 | 2.0 | 0.00 | 0.00 | 0.00 | 49 | 1018.7 |
| 20260502110044 | 45 | 165 | 1.0 | 2.0 | 0.00 | 0.00 | 0.00 | 52 | 1018.6 |
| 20260502105525 | 45 | 165 | 1.0 | 2.0 | 0.00 | 0.00 | 0.00 | 52 | 1018.6 |
| 20260502105025 | 45 | 165 | 0.0 | 2.0 | 0.00 | 0.00 | 0.00 | 50 | 1018.7 |
| 20260502104548 | 45 | 165 | 1.0 | 2.0 | 0.00 | 0.00 | 0.00 | 49 | 1018.7 |
| 20260502104025 | 46 | 165 | 1.0 | 2.0 | 0.00 | 0.00 | 0.00 | 49 | 1018.8 |
| 20260502103524 | 46 | 165 | 1.0 | 2.0 | 0.00 | 0.00 | 0.00 | 49 | 1018.7 |
| 20260502103040 | 46 | 165 | 0.0 | 2.0 | 0.00 | 0.00 | 0.00 | 50 | 1018.7 |
| 20260502102525 | 46 | 0 | 0.0 | 2.0 | 0.00 | 0.00 | 0.00 | 48 | 1018.7 |
| 20260502102026 | 46 | 165 | 0.0 | 2.0 | 0.00 | 0.00 | 0.00 | 48 | 1018.7 |
| 20260502101608 | 46 | 165 | 1.0 | 4.0 | 0.00 | 0.00 | 0.00 | 48 | 1018.7 |
| 20260502101025 | 46 | 165 | 1.0 | 4.0 | 0.00 | 0.00 | 0.00 | 49 | 1018.6 |
| 20260502100525 | 47 | 165 | 1.0 | 2.0 | 0.00 | 0.00 | 0.00 | 51 | 1018.6 |
| 20260502091026 | 48 | 165 | 0.0 | 2.0 | 0.00 | 0.00 | 0.00 | 35 | 1018.9 |
| 20260502090525 | 48 | 165 | 0.0 | 2.0 | 0.00 | 0.00 | 0.00 | 35 | 1018.8 |
| 20260502071025 | 49 | 165 | 1.0 | 4.0 | 0.00 | 0.00 | 0.00 | 37 | 1019.7 |
| 20260502070526 | 49 | 165 | 1.0 | 4.0 | 0.00 | 0.00 | 0.00 | 35 | 1019.7 |
| 20260502070054 | 48 | 165 | 2.0 | 4.0 | 0.00 | 0.00 | 0.00 | 33 | 1019.8 |
| 20260502065526 | 48 | 165 | 2.0 | 4.0 | 0.00 | 0.00 | 0.00 | 34 | 1019.7 |
| 20260502065026 | 48 | 165 | 1.0 | 4.0 | 0.00 | 0.00 | 0.00 | 35 | 1019.8 |
| 20260502064548 | 48 | 165 | 1.0 | 4.0 | 0.00 | 0.00 | 0.00 | 35 | 1019.8 |
| 20260502064025 | 48 | 165 | 1.0 | 2.0 | 0.00 | 0.00 | 0.00 | 37 | 1019.8 |
| 20260502063525 | 48 | 165 | 1.0 | 2.0 | 0.00 | 0.00 | 0.00 | 38 | 1019.8 |
| 20260502063042 | 49 | 165 | 1.0 | 5.0 | 0.00 | 0.00 | 0.00 | 40 | 1019.8 |
| 20260502062525 | 49 | 165 | 1.0 | 5.0 | 0.00 | 0.00 | 0.00 | 43 | 1019.8 |
| 20260502062024 | 49 | 165 | 2.0 | 5.0 | 0.00 | 0.00 | 0.00 | 45 | 1019.8 |
| 20260502061540 | 49 | 165 | 1.0 | 4.0 | 0.00 | 0.00 | 0.00 | 48 | 1019.7 |
| 20260502061025 | 49 | 165 | 1.0 | 4.0 | 0.00 | 0.00 | 0.00 | 49 | 1019.8 |
| 20260502060526 | 49 | 165 | 1.0 | 2.0 | 0.00 | 0.00 | 0.00 | 52 | 1019.8 |
| 20260502060039 | 49 | 165 | 1.0 | 2.0 | 0.00 | 0.00 | 0.00 | 53 | 1019.8 |
| 20260502055525 | 49 | 165 | 1.0 | 4.0 | 0.00 | 0.00 | 0.00 | 54 | 1019.8 |
| 20260502055026 | 49 | 165 | 1.0 | 4.0 | 0.00 | 0.00 | 0.00 | 54 | 1020.0 |
| 20260502054546 | 49 | 165 | 2.0 | 4.0 | 0.00 | 0.00 | 0.00 | 55 | 1020.0 |
| 20260502054025 | 49 | 165 | 1.0 | 4.0 | 0.00 | 0.00 | 0.00 | 57 | 1020.0 |
| 20260502053526 | 50 | 165 | 1.0 | 4.0 | 0.00 | 0.00 | 0.00 | 58 | 1020.0 |
| 20260502053044 | 50 | 165 | 1.0 | 2.0 | 0.00 | 0.00 | 0.00 | 59 | 1020.0 |
| 20260502052525 | 50 | 165 | 1.0 | 2.0 | 0.00 | 0.00 | 0.00 | 59 | 1020.0 |
| 20260502052028 | 50 | 165 | 1.0 | 4.0 | 0.00 | 0.00 | 0.00 | 59 | 1020.0 |
| 20260502051555 | 50 | 165 | 1.0 | 4.0 | 0.00 | 0.00 | 0.00 | 58 | 1020.0 |
| 20260502051025 | 50 | 165 | 2.0 | 4.0 | 0.00 | 0.00 | 0.00 | 57 | 1020.1 |
| 20260502050525 | 50 | 165 | 1.0 | 4.0 | 0.00 | 0.00 | 0.00 | 56 | 1020.0 |
| 20260502050040 | 50 | 165 | 1.0 | 4.0 | 0.00 | 0.00 | 0.00 | 55 | 1020.1 |
| 20260502045526 | 50 | 165 | 1.0 | 4.0 | 0.00 | 0.00 | 0.00 | 54 | 1020.0 |
| 20260502045027 | 50 | 165 | 2.0 | 4.0 | 0.00 | 0.00 | 0.00 | 53 | 1020.0 |
| 20260502044546 | 50 | 165 | 2.0 | 4.0 | 0.00 | 0.00 | 0.00 | 51 | 1020.1 |
| 20260502044025 | 50 | 165 | 2.0 | 5.0 | 0.00 | 0.00 | 0.00 | 50 | 1020.0 |
| 20260502043523 | 50 | 165 | 2.0 | 5.0 | 0.00 | 0.00 | 0.00 | 49 | 1020.0 |
| 20260502043045 | 50 | 165 | 1.0 | 4.0 | 0.00 | 0.00 | 0.00 | 46 | 1020.1 |
| 20260502042526 | 50 | 165 | 2.0 | 5.0 | 0.00 | 0.00 | 0.00 | 45 | 1020.0 |
| 20260502042025 | 50 | 165 | 1.0 | 5.0 | 0.00 | 0.00 | 0.00 | 45 | 1020.0 |
| 20260502041542 | 50 | 165 | 1.0 | 4.0 | 0.00 | 0.00 | 0.00 | 43 | 1020.0 |
| 20260502041026 | 50 | 165 | 1.0 | 4.0 | 0.00 | 0.00 | 0.00 | 43 | 1020.0 |
| 20260502040529 | 51 | 165 | 2.0 | 4.0 | 0.00 | 0.00 | 0.00 | 42 | 1020.0 |
| 20260502040052 | 51 | 165 | 1.0 | 4.0 | 0.00 | 0.00 | 0.00 | 42 | 1019.9 |
| 20260502035525 | 51 | 165 | 1.0 | 4.0 | 0.00 | 0.00 | 0.00 | 42 | 1019.8 |
| 20260502035025 | 51 | 165 | 1.0 | 4.0 | 0.00 | 0.00 | 0.00 | 42 | 1019.6 |
| 20260502034545 | 51 | 165 | 2.0 | 4.0 | 0.00 | 0.00 | 0.00 | 40 | 1019.6 |
| 20260502034025 | 52 | 165 | 2.0 | 4.0 | 0.00 | 0.00 | 0.00 | 41 | 1019.6 |
| 20260502033524 | 52 | 165 | 2.0 | 4.0 | 0.00 | 0.00 | 0.00 | 39 | 1019.6 |
| 20260502033044 | 52 | 165 | 1.0 | 4.0 | 0.00 | 0.00 | 0.00 | 38 | 1019.4 |
| 20260502032525 | 52 | 165 | 1.0 | 4.0 | 0.00 | 0.00 | 0.00 | 38 | 1019.4 |
| 20260502032025 | 52 | 165 | 1.0 | 4.0 | 0.00 | 0.00 | 0.00 | 38 | 1019.2 |
| 20260502031542 | 52 | 165 | 2.0 | 4.0 | 0.00 | 0.00 | 0.00 | 38 | 1019.2 |
| 20260502031025 | 53 | 165 | 1.0 | 4.0 | 0.00 | 0.00 | 0.00 | 39 | 1019.1 |
| 20260502030526 | 53 | 165 | 1.0 | 3.0 | 0.00 | 0.00 | 0.00 | 38 | 1019.1 |
| 20260502030041 | 53 | 165 | 0.0 | 4.0 | 0.00 | 0.00 | 0.00 | 37 | 1019.1 |
| 20260502025525 | 54 | 165 | 2.0 | 4.0 | 0.00 | 0.00 | 0.00 | 38 | 1019.1 |
| 20260502025024 | 54 | 165 | 2.0 | 4.0 | 0.00 | 0.00 | 0.00 | 38 | 1019.1 |
| 20260502024542 | 54 | 165 | 1.0 | 2.0 | 0.00 | 0.00 | 0.00 | 39 | 1019.1 |
| 20260502024025 | 55 | 165 | 1.0 | 2.0 | 0.00 | 0.00 | 0.00 | 37 | 1019.1 |
| 20260502023525 | 55 | 165 | 1.0 | 2.0 | 0.00 | 0.00 | 0.00 | 37 | 1019.0 |
| 20260502023047 | 56 | 165 | 0.0 | 2.0 | 0.00 | 0.00 | 0.00 | 36 | 1019.1 |
| 20260502022525 | 56 | 165 | 1.0 | 2.0 | 0.00 | 0.00 | 0.00 | 36 | 1018.9 |
| 20260502022024 | 57 | 165 | 0.0 | 1.0 | 0.00 | 0.00 | 0.00 | 37 | 1019.0 |
| 20260502021547 | 57 | 165 | 0.0 | 1.0 | 0.00 | 0.00 | 0.00 | 34 | 1018.9 |
| 20260502021025 | 57 | 0 | 0.0 | 1.0 | 0.00 | 0.00 | 0.00 | 32 | 1019.0 |
| 20260502020526 | 58 | 0 | 0.0 | 1.0 | 0.00 | 0.00 | 0.00 | 30 | 1019.0 |
| 20260502020100 | 58 | 165 | 0.0 | 1.0 | 0.00 | 0.00 | 0.00 | 29 | 1018.9 |
| 20260502015526 | 59 | 0 | 0.0 | 2.0 | 0.00 | 0.00 | 0.00 | 28 | 1019.0 |
| 20260502015025 | 59 | 0 | 0.0 | 2.0 | 0.00 | 0.00 | 0.00 | 27 | 1019.0 |
| 20260502014544 | 59 | 165 | 0.0 | 2.0 | 0.00 | 0.00 | 0.00 | 25 | 1018.9 |
| 20260502014025 | 59 | 165 | 0.0 | 2.0 | 0.00 | 0.00 | 0.00 | 24 | 1019.1 |
| 20260502013525 | 59 | 165 | 0.0 | 2.0 | 0.00 | 0.00 | 0.00 | 24 | 1018.9 |
| 20260502013054 | 59 | 165 | 1.0 | 2.0 | 0.00 | 0.00 | 0.00 | 23 | 1019.0 |
| 20260502012525 | 59 | 0 | 1.0 | 4.0 | 0.00 | 0.00 | 0.00 | 23 | 1019.1 |
| 20260502012026 | 60 | 165 | 1.0 | 4.0 | 0.00 | 0.00 | 0.00 | 22 | 1019.0 |
| 20260502011543 | 60 | 165 | 1.0 | 2.0 | 0.00 | 0.00 | 0.00 | 21 | 1018.9 |
| 20260502011025 | 60 | 0 | 0.0 | 2.0 | 0.00 | 0.00 | 0.00 | 24 | 1019.0 |
| 20260502010525 | 60 | 0 | 0.0 | 4.0 | 0.00 | 0.00 | 0.00 | 22 | 1019.1 |
| 20260502010042 | 60 | 165 | 0.0 | 5.0 | 0.00 | 0.00 | 0.00 | 21 | 1019.1 |
| 20260502005524 | 60 | 165 | 0.0 | 5.0 | 0.00 | 0.00 | 0.00 | 21 | 1019.1 |
| 20260502005025 | 60 | 0 | 1.0 | 5.0 | 0.00 | 0.00 | 0.00 | 20 | 1019.2 |
| 20260502004537 | 61 | 165 | 1.0 | 5.0 | 0.00 | 0.00 | 0.00 | 20 | 1019.2 |
| 20260502004026 | 61 | 165 | 1.0 | 5.0 | 0.00 | 0.00 | 0.00 | 21 | 1019.2 |
| 20260502003524 | 61 | 165 | 2.0 | 5.0 | 0.00 | 0.00 | 0.00 | 20 | 1019.2 |
| 20260502003036 | 61 | 165 | 0.0 | 5.0 | 0.00 | 0.00 | 0.00 | 21 | 1019.1 |
| 20260502002525 | 61 | 165 | 1.0 | 5.0 | 0.00 | 0.00 | 0.00 | 19 | 1019.2 |
| 20260502002026 | 61 | 0 | 0.0 | 5.0 | 0.00 | 0.00 | 0.00 | 21 | 1019.2 |
| 20260502001603 | 61 | 165 | 1.0 | 6.0 | 0.00 | 0.00 | 0.00 | 21 | 1019.3 |
| 20260502001024 | 61 | 165 | 2.0 | 6.0 | 0.00 | 0.00 | 0.00 | 19 | 1019.3 |
| 20260502000524 | 61 | 165 | 1.0 | 4.0 | 0.00 | 0.00 | 0.00 | 18 | 1019.3 |
| 20260502000043 | 61 | 165 | 0.0 | 6.0 | 0.00 | 0.00 | 0.00 | 16 | 1019.4 |
| 20260501235525 | 62 | 0 | 2.0 | 6.0 | 0.00 | 0.00 | 0.00 | 16 | 1019.4 |
| 20260501235026 | 62 | 177 | 1.0 | 5.0 | 0.00 | 0.00 | 0.00 | 16 | 1019.5 |
| 20260501234541 | 62 | 180 | 2.0 | 5.0 | 0.00 | 0.00 | 0.00 | 17 | 1019.5 |
| 20260501234025 | 62 | 180 | 2.0 | 5.0 | 0.00 | 0.00 | 0.00 | 15 | 1019.6 |
| 20260501233525 | 62 | 180 | 2.0 | 5.0 | 0.00 | 0.00 | 0.00 | 14 | 1019.6 |
| 20260501233044 | 62 | 174 | 1.0 | 6.0 | 0.00 | 0.00 | 0.00 | 19 | 1019.6 |
| 20260501232525 | 62 | 178 | 3.0 | 6.0 | 0.00 | 0.00 | 0.00 | 19 | 1019.7 |
| 20260501232024 | 63 | 175 | 3.0 | 6.0 | 0.00 | 0.00 | 0.00 | 20 | 1019.8 |
| 20260501231544 | 63 | 202 | 2.0 | 6.0 | 0.00 | 0.00 | 0.00 | 20 | 1019.8 |
| 20260501231024 | 62 | 168 | 2.0 | 5.0 | 0.00 | 0.00 | 0.00 | 20 | 1019.8 |
| 20260501230524 | 62 | 204 | 2.0 | 7.0 | 0.00 | 0.00 | 0.00 | 21 | 1019.9 |
| 20260501230044 | 62 | 206 | 2.0 | 7.0 | 0.00 | 0.00 | 0.00 | 21 | 1020.0 |
| 20260501225525 | 62 | 167 | 3.0 | 6.0 | 0.00 | 0.00 | 0.00 | 22 | 1020.1 |
| 20260501225024 | 61 | 188 | 1.0 | 7.0 | 0.00 | 0.00 | 0.00 | 23 | 1020.2 |
| 20260501224543 | 61 | 191 | 4.0 | 10.0 | 0.00 | 0.00 | 0.00 | 22 | 1020.1 |
| 20260501224025 | 62 | 174 | 4.0 | 10.0 | 0.00 | 0.00 | 0.00 | 22 | 1020.3 |
| 20260501223525 | 63 | 184 | 3.0 | 7.0 | 0.00 | 0.00 | 0.00 | 22 | 1020.4 |
| 20260501223041 | 62 | 196 | 2.0 | 8.0 | 0.00 | 0.00 | 0.00 | 23 | 1020.4 |
| 20260501222525 | 62 | 186 | 4.0 | 8.0 | 0.00 | 0.00 | 0.00 | 22 | 1020.5 |
| 20260501222027 | 63 | 183 | 3.0 | 7.0 | 0.00 | 0.00 | 0.00 | 22 | 1020.6 |
| 20260501221543 | 62 | 149 | 2.0 | 7.0 | 0.00 | 0.00 | 0.00 | 23 | 1020.6 |
| 20260501221024 | 62 | 145 | 2.0 | 7.0 | 0.00 | 0.00 | 0.00 | 23 | 1020.7 |
| 20260501220525 | 62 | 173 | 2.0 | 7.0 | 0.00 | 0.00 | 0.00 | 21 | 1020.7 |
| 20260501220117 | 63 | 178 | 3.0 | 7.0 | 0.00 | 0.00 | 0.00 | 23 | 1020.8 |
| 20260501215525 | 61 | 181 | 3.0 | 8.0 | 0.00 | 0.00 | 0.00 | 24 | 1020.9 |
| 20260501215025 | 61 | 186 | 4.0 | 9.0 | 0.00 | 0.00 | 0.00 | 24 | 1020.9 |
| 20260501214544 | 61 | 165 | 2.0 | 9.0 | 0.00 | 0.00 | 0.00 | 25 | 1020.9 |
| 20260501214024 | 62 | 84 | 3.0 | 8.0 | 0.00 | 0.00 | 0.00 | 24 | 1020.9 |
| 20260501213527 | 62 | 119 | 3.0 | 8.0 | 0.00 | 0.00 | 0.00 | 24 | 1021.0 |
| 20260501213043 | 62 | 178 | 1.0 | 9.0 | 0.00 | 0.00 | 0.00 | 25 | 1021.0 |
| 20260501212524 | 62 | 175 | 2.0 | 9.0 | 0.00 | 0.00 | 0.00 | 25 | 1021.1 |
| 20260501212025 | 61 | 197 | 4.0 | 10.0 | 0.00 | 0.00 | 0.00 | 25 | 1021.1 |
| 20260501211542 | 61 | 184 | 4.0 | 10.0 | 0.00 | 0.00 | 0.00 | 25 | 1021.1 |
| 20260501211029 | 61 | 183 | 3.0 | 8.0 | 0.00 | 0.00 | 0.00 | 25 | 1021.1 |
| 20260501210525 | 61 | 200 | 1.0 | 8.0 | 0.00 | 0.00 | 0.00 | 25 | 1021.1 |
| 20260501205525 | 62 | 200 | 3.0 | 6.0 | 0.00 | 0.00 | 0.00 | 25 | 1021.3 |
| 20260501205025 | 61 | 165 | 2.0 | 8.0 | 0.00 | 0.00 | 0.00 | 26 | 1021.2 |
| 20260501204546 | 61 | 181 | 3.0 | 8.0 | 0.00 | 0.00 | 0.00 | 25 | 1021.3 |
| 20260501204023 | 61 | 128 | 2.0 | 8.0 | 0.00 | 0.00 | 0.00 | 25 | 1021.3 |
| 20260501203524 | 60 | 247 | 3.0 | 9.0 | 0.00 | 0.00 | 0.00 | 26 | 1021.3 |
| 20260501203044 | 59 | 180 | 2.0 | 9.0 | 0.00 | 0.00 | 0.00 | 29 | 1021.4 |
| 20260501202524 | 58 | 167 | 4.0 | 12.0 | 0.00 | 0.00 | 0.00 | 28 | 1021.5 |
| 20260501202026 | 59 | 186 | 6.0 | 12.0 | 0.00 | 0.00 | 0.00 | 26 | 1021.5 |
| 20260501201545 | 59 | 171 | 3.0 | 11.0 | 0.00 | 0.00 | 0.00 | 28 | 1021.4 |
| 20260501201026 | 58 | 160 | 4.0 | 11.0 | 0.00 | 0.00 | 0.00 | 26 | 1021.5 |
| 20260501200617 | 59 | 189 | 3.0 | 10.0 | 0.00 | 0.00 | 0.00 | 27 | 1021.5 |
| 20260501200040 | 59 | 186 | 3.0 | 11.0 | 0.00 | 0.00 | 0.00 | 26 | 1021.5 |
| 20260501195526 | 59 | 193 | 5.0 | 11.0 | 0.00 | 0.00 | 0.00 | 26 | 1021.6 |
| 20260501195026 | 60 | 184 | 4.0 | 10.0 | 0.00 | 0.00 | 0.00 | 26 | 1021.6 |
| 20260501194547 | 59 | 173 | 4.0 | 10.0 | 0.00 | 0.00 | 0.00 | 27 | 1021.6 |
| 20260501194025 | 59 | 182 | 4.0 | 9.0 | 0.00 | 0.00 | 0.00 | 27 | 1021.6 |
| 20260501193524 | 59 | 196 | 4.0 | 13.0 | 0.00 | 0.00 | 0.00 | 27 | 1021.7 |
| 20260501193048 | 59 | 188 | 4.0 | 13.0 | 0.00 | 0.00 | 0.00 | 27 | 1021.7 |
| 20260501192526 | 58 | 158 | 3.0 | 9.0 | 0.00 | 0.00 | 0.00 | 27 | 1021.8 |
| 20260501192026 | 59 | 212 | 5.0 | 8.0 | 0.00 | 0.00 | 0.00 | 26 | 1021.9 |
| 20260501191543 | 59 | 188 | 2.0 | 10.0 | 0.00 | 0.00 | 0.00 | 25 | 1021.9 |
| 20260501191028 | 59 | 175 | 3.0 | 10.0 | 0.00 | 0.00 | 0.00 | 28 | 1021.9 |
| 20260501190529 | 59 | 137 | 4.0 | 9.0 | 0.00 | 0.00 | 0.00 | 28 | 1022.0 |
| 20260501190042 | 59 | 161 | 4.0 | 9.0 | 0.00 | 0.00 | 0.00 | 27 | 1022.0 |
| 20260501185527 | 58 | 175 | 3.0 | 9.0 | 0.00 | 0.00 | 0.00 | 26 | 1022.0 |
| 20260501185025 | 58 | 151 | 4.0 | 9.0 | 0.00 | 0.00 | 0.00 | 26 | 1022.0 |
| 20260501184538 | 58 | 210 | 2.0 | 13.0 | 0.00 | 0.00 | 0.00 | 28 | 1022.1 |
| 20260501184025 | 57 | 159 | 4.0 | 13.0 | 0.00 | 0.00 | 0.00 | 26 | 1022.2 |
| 20260501183525 | 56 | 153 | 4.0 | 12.0 | 0.00 | 0.00 | 0.00 | 27 | 1022.3 |
| 20260501183052 | 57 | 79 | 4.0 | 9.0 | 0.00 | 0.00 | 0.00 | 26 | 1022.4 |
| 20260501182524 | 57 | 138 | 3.0 | 8.0 | 0.00 | 0.00 | 0.00 | 28 | 1022.4 |
| 20260501182024 | 56 | 178 | 3.0 | 11.0 | 0.00 | 0.00 | 0.00 | 27 | 1022.4 |
| 20260501181600 | 56 | 150 | 4.0 | 12.0 | 0.00 | 0.00 | 0.00 | 28 | 1022.3 |
| 20260501181025 | 56 | 104 | 5.0 | 13.0 | 0.00 | 0.00 | 0.00 | 28 | 1022.3 |
| 20260501180528 | 56 | 178 | 5.0 | 13.0 | 0.00 | 0.00 | 0.00 | 28 | 1022.4 |
| 20260501180044 | 57 | 76 | 3.0 | 8.0 | 0.00 | 0.00 | 0.00 | 30 | 1022.3 |